Regional Weather Roundup
Issued by NWS

Home | Current Version | Previous Version | Text Only | Print | Product List | Glossary Off
Versions: 1 2 3 4 5 6 7 8 9 10 11 12 13 14 15 16 17 18 19 20 21 22 23 24 25 26 27 28 29 30 31 32 33 34 35 36 37 38 39 40 41 42 43 44 45 46 47 48 49 50

000
ASUS43 KMPX 260510
RWRMN
WEATHER ROUNDUP FOR MINNESOTA
NATIONAL WEATHER SERVICE TWIN CITIES/CHANHASSEN MN
1200 AM CDT WED JUL 26 2017


NOTE: "FAIR" INDICATES FEW OR NO CLOUDS BELOW 12,000 FEET WITH NO
SIGNIFICANT WEATHER AND/OR OBSTRUCTIONS TO VISIBILITY. N/A MEANS
CURRENT SKY AND/OR WEATHER CONDITIONS ARE NOT AVAILABLE.

MNZ060>063-068>070-260600-
   Twin Cities Metro

CITY           SKY/WX    TMP DP  RH WIND       PRES   REMARKS
TWIN CITIES    CLOUDY    78  72  81 W7        29.98R
ST PAUL        MOCLDY    77  74  90 NW8       29.98R
CRYSTAL        CLOUDY    77  70  79 CALM      29.96R
BLAINE         MOCLDY    79  72  78 CALM      29.98R
LAKEVILLE      CLOUDY    72  72 100 CALM      29.99R
SOUTH ST PAUL  CLOUDY    76  73  87 SW5       29.97R
LAKE ELMO      FAIR      75  72  88 W3        30.00R
$$
MNZ001>005-007-008-013>017-022>024-027-028-260600-
   Northwest Minnesota

CITY           SKY/WX    TMP DP  RH WIND       PRES   REMARKS
BEMIDJI        CLOUDY    68  65  90 W7        29.99R
HALLOCK        PTCLDY    63  59  88 W5        29.93S
ROSEAU         CLOUDY    66  59  77 SW3       29.94R
WARROAD        CLOUDY    63  59  88 SW7       29.94R
THIEF RVR FALL CLOUDY    62  58  86 SW8       30.00R
CROOKSTON      PTCLDY    64  57  77 SW3       30.00R
FOSSTON        PTCLDY    64  57  77 W6        30.01R
DETROIT LAKES  PTCLDY    70  66  88 W5        30.03R
MOORHEAD       PTCLDY    64  63  94 CALM      30.02R
PARK RAPIDS    PTCLDY    69  67  93 W7        30.00R
MAHNOMEN       FAIR      65  59  80 W6        30.02R
$$
MNZ006-009>011-018-025>026-260600-
   North Central Minnesota

CITY           SKY/WX    TMP DP  RH WIND       PRES   REMARKS
BAUDETTE       PTCLDY    64  58  80 W7        29.93R
FLAG ISLAND    CLEAR     66  57  72 W9        29.89R
INTL FALLS     CLOUDY    63  58  83 W6        29.91R
WASKISH        CLOUDY    70  63  78 W8        29.96R
BIG FORK       CLOUDY    70  66  88 SW3       29.96R
LONGVILLE      CLEAR     70  70 100 SW7       29.99R
GRAND RAPIDS   PTCLDY    70  68  93 SW6       29.98R
CRANE LAKE     CLOUDY    66  63  88 SW3       29.93R
ORR            CLOUDY    68  64  88 W6        29.91R
COOK             N/A     68  66  94 SW8       29.94R
WALKER         FAIR      69  66  91 SW7       30.00R
$$
MNZ012-019>021-037-260600-
   Northeast Minnesota

CITY           SKY/WX    TMP DP  RH WIND       PRES   REMARKS
DULUTH         CLOUDY    70  68  93 SW13      29.97R
ELY            MOCLDY    70  66  88 SW12      29.92R
HIBBING        CLOUDY    66  66 100 W5        29.94R
EVELETH        CLOUDY    66  63  91 SW6       29.95R
DULUTH HARBOR  CLOUDY    68  64  88 SW8       29.96R
TWO HARBORS    CLOUDY    70  64  83 W6        29.92R
GRAND MARAIS     N/A     61  60  97 CALM      29.88F
G MARAIS ARPRT CLOUDY    64  61  88 SW3       29.93S FOG
$$
MNZ029>031-032-039>041-046>048-054>057-064-260600-
   West Central Minnesota

CITY           SKY/WX    TMP DP  RH WIND       PRES   REMARKS
FERGUS FALLS   CLOUDY    70  70 100 N5        29.98F
WHEATON        CLOUDY    72  68  88 CALM      29.99F
MORRIS         CLOUDY    72  70  94 NW5       29.97S
ALEXANDRIA     CLOUDY    72  70  93 NW5       30.00F
ELBOW LAKE     FAIR      71  70  98 CALM      29.99S
WADENA         PTCLDY    70  70 100 NW5       29.99F
GLENWOOD       CLOUDY    72  70  94 NW3       30.00R
APPLETON       CLOUDY    73  66  78 NW3       29.96R
BENSON         CLOUDY    72  68  88 CALM      29.99R
ORTONVILLE     CLOUDY    75  70  83 MISG      29.97S
MADISON        DRIZZLE   75  70  83 N7        29.96S
WILLMAR        FAIR      73  70  88 CALM      29.98S
$$
MNZ033>034-036-042>043-049>051-058-059-260600-
   Central Minnesota

CITY           SKY/WX    TMP DP  RH WIND       PRES   REMARKS
ST CLOUD       CLOUDY    73  70  90 NW6       29.96F
SAUK CENTRE    FAIR      71  70  96 NW6       29.99S
PAYNESVILLE    CLOUDY    71  68  91 CALM      29.98S
AITKIN         MOCLDY    73  68  83 W6        29.97R
PINE RIVER     CLEAR     70  70 100 CALM      30.03R
BRAINERD       CLOUDY    73  68  84 W5        29.97F
STAPLES        PTCLDY    70  66  88 NW5       29.99S
LONG PRAIRIE   MOCLDY    70  68  94 W5        30.00S
LITTLE FALLS   CLOUDY    66  64  94 CALM      29.98F
LITCHFIELD     CLOUDY    75  72  88 CALM      29.98S
BUFFALO        CLOUDY    74  67  77 CALM      29.97F
MAPLE LAKE     CLOUDY    75  70  83 CALM      29.97F
HUTCHINSON     PTCLDY    72  71  98 CALM      29.99S
$$
MNZ037-044-045-052-053-260600-
   East Central Minnesota

CITY           SKY/WX    TMP DP  RH WIND       PRES   REMARKS
PRINCETON      DRIZZLE   73  72  94 CALM      29.97F
MORA           LGT RAIN  64  63  94 CALM      29.99S
CAMBRIDGE      PTCLDY    77  68  73 CALM      29.96F
RUSH CITY      RAIN      73  70  91 CALM      29.98S
MOOSE LAKE     CLOUDY    68  64  88 SW6       29.95F
HINCKLEY       LGT RAIN  68  66  94 S3        29.98R
CLOQUET        LGT RAIN  72  66  83 SW6       29.97R
MCGREGOR       CLOUDY    72  68  88 SW5       29.99R
$$
MNZ071>073-080-081-089-090-097-098-260600-
   Southwest Minnesota

CITY           SKY/WX    TMP DP  RH WIND       PRES   REMARKS
MONTEVIDEO     CLOUDY    72  64  78 CALM      29.96S
GRANITE FALLS  LGT RAIN  73  70  88 E5        29.96F
CANBY          LGT RAIN  73  68  86 CALM      29.97S
MARSHALL       LGT RAIN  73  68  84 SW7       29.96F
REDWOOD FALLS  CLOUDY    73  70  90 W3        29.96F
OLIVIA         CLOUDY    72  70  94 CALM      29.96F
PIPESTONE      LGT RAIN  75  72  88 S3        30.02S
WINDOM         LGT RAIN  75  73  94 CALM      30.01F
WORTHINGTON    CLOUDY    74  73  97 E3        30.02F
JACKSON        CLOUDY    77  72  83 CALM      30.02S
TRACY          LGT RAIN  75  72  90 S7        29.98F
SLAYTON        RAIN      71  69  96 S5        30.02S
$$
MNZ065>067-074>077-082>085-091>093-260600-
   South Central Minnesota

CITY           SKY/WX    TMP DP  RH WIND       PRES   REMARKS
MANKATO        LGT RAIN  77  74  90 SW8       30.01R
NEW ULM        LGT RAIN  75  73  94 S5        29.99S
ST JAMES         N/A     75  73  94 NE3       30.02R
FAIRMONT       CLOUDY    77  74  90 S7        30.01R
GLENCOE        CLOUDY    75  75 100 CALM      29.97F
FARIBAULT      CLOUDY    75  72  88 S5        30.00R
OWATONNA       CLOUDY    75  70  83 S8        30.01R
WASECA         CLOUDY    77  72  83 S7        30.02R
ALBERT LEA     CLOUDY    77  70  78 S8        30.01R
$$
MNZ078>079-086>088-094>096-260600-
   Southeast Minnesota

CITY           SKY/WX    TMP DP  RH WIND       PRES   REMARKS
ROCHESTER      CLOUDY    73  69  87 S14       30.03R
RED WING       CLOUDY    79  66  65 W5        29.97R
STANTON        CLOUDY    75  71  86 CALM      29.98R
DODGE CENTER   CLOUDY    73  68  83 S14G21    30.02R
WINONA         CLOUDY    73  66  78 SW5       29.99R
AUSTIN         CLOUDY    73  68  83 S8        30.02R
PRESTON        CLOUDY    72  67  83 S14       30.04R
$$
ABBREVIATIONS USED IN REMARKS
   TC - TEMPERATURES IN CELSIUS
  WCI - WIND CHILL INDEX
   HX - HEAT INDEX
  VSB - VISIBILITY
$$




USA.gov is the U.S. government's official web portal to all federal, state and local government web resources and services.